Omaha, NE

7:21 PM CST on February 10, 2016 (GMT -0600)
Millard Municipal

Weather History for KMLE - February, 2013

Change the Weather History Date:

Monday, February 4, 2013

  Actual Average (KOMA) Record (KOMA)
Temperature  
Mean Temperature 28 °F 25 °F  
Max Temperature 32 °F 35 °F 63 °F (1944)
Min Temperature 23 °F 15 °F -25 °F (1883)
Degree Days  
Heating Degree Days 38 40  
Month to date heating degree days 160  
Since 1 July heating degree days 3925  
Cooling Degree Days 0 0  
Month to date cooling degree days 0  
Year to date cooling degree days 0  
Moisture  
Dew Point 22 °F    
Average Humidity 83    
Maximum Humidity 92    
Minimum Humidity 72    
Precipitation  
Precipitation 0.03 in 0.03 in 0.80 in (2012)
Month to date precipitation 0.11  
Year to date precipitation 0.83  
Snow  
Snow 0.00 in 0.20 in - ()
Month to date snowfall 0.9  
Since 1 July snowfall 16.0  
Snow Depth -    
Sea Level Pressure  
Sea Level Pressure 29.93 in    
Wind  
Wind Speed 4 mph (NW)    
Max Wind Speed 16 mph    
Max Gust Speed 25 mph    
Visibility 10 miles    
Events      
T = Trace of Precipitation, MM = Missing Value Source: NWS Daily Summary

Daily Weather History Graph

Daily Weather History Graph

Search for Another Location

Airport or City:

Trip Planner

Search our weather history database for the weather conditions in past years. The results will help you decide how hot, cold, wet, or windy it might be!

Date:

Astronomy

Feb. 04, 2013 Rise Set
Actual Time 7:32 AM CST 5:45 PM CST
Civil Twilight 7:03 AM CST 6:14 PM CST
Nautical Twilight 6:30 AM CST 6:47 PM CST
Astronomical Twilight 5:58 AM CST 7:19 PM CST
Moon 2:09 AM CST (2/4) 12:09 PM CST (2/4)
Length of Visible Light 11h 11m
Length of Day
10h 13m
Last Quarter, 37% of the Moon is Illuminated
Feb 4
Last Quarter
Feb 10
New
Feb 17
First Quarter
Feb 25
Full
Mar 4
Last Quarter

Hourly Weather History & Observations

Time (CST) Temp. Windchill Dew Point Humidity Pressure Visibility Wind Dir Wind Speed Gust Speed Precip Events Conditions
12:15 AM 32.0 °F - 28.0 °F 85% 29.78 in 10.0 mi Calm Calm - N/A   Clear
12:35 AM 30.2 °F - 27.1 °F 88% 29.78 in 10.0 mi Calm Calm - N/A   Clear
12:55 AM 30.0 °F - 27.7 °F 91% 29.78 in 10.0 mi Calm Calm - N/A   Clear
1:15 AM 30.0 °F - 27.5 °F 90% 29.77 in 10.0 mi Calm Calm - N/A   Clear
1:35 AM 30.2 °F - 27.7 °F 90% 29.76 in 10.0 mi Calm Calm - N/A   Clear
1:55 AM 30.2 °F - 27.7 °F 90% 29.77 in 10.0 mi Calm Calm - N/A   Clear
2:15 AM 29.3 °F - 27.3 °F 92% 29.77 in 10.0 mi Calm Calm - N/A   Clear
2:35 AM 28.8 °F - 26.6 °F 92% 29.78 in 10.0 mi Calm Calm - N/A   Clear
2:55 AM 29.8 °F - 27.9 °F 92% 29.78 in 10.0 mi Calm Calm - N/A   Clear
3:15 AM 30.4 °F 26.9 °F 28.0 °F 91% 29.79 in 10.0 mi NW 3.5 mph - N/A   Clear
4:55 AM 30.4 °F 19.1 °F 26.1 °F 84% 29.85 in 10.0 mi NNW 16.1 mph 25.3 mph N/A   Clear
5:15 AM 27.1 °F 16.9 °F 23.4 °F 86% 29.87 in 10.0 mi NNW 11.5 mph 17.3 mph N/A   Clear
5:35 AM 25.3 °F 12.6 °F 22.1 °F 87% 29.89 in 10.0 mi NNW 16.1 mph 21.9 mph N/A   Mostly Cloudy
5:55 AM 24.4 °F 14.9 °F 21.9 °F 90% 29.91 in 10.0 mi NNW 9.2 mph 21.9 mph N/A   Overcast
6:15 AM 23.9 °F 12.3 °F 21.6 °F 91% 29.92 in 10.0 mi NNW 12.7 mph 21.9 mph N/A   Overcast
6:35 AM 23.4 °F 10.6 °F 21.0 °F 91% 29.94 in 10.0 mi NNW 15.0 mph 23.0 mph N/A   Overcast
6:55 AM 23.5 °F 12.4 °F 21.0 °F 90% 29.95 in 10.0 mi NNW 11.5 mph 25.3 mph N/A   Overcast
7:15 AM 23.9 °F 12.3 °F 21.2 °F 89% 29.96 in 10.0 mi North 12.7 mph 21.9 mph N/A   Overcast
7:35 AM 23.9 °F 15.8 °F 21.6 °F 91% 29.96 in 10.0 mi NNW 6.9 mph 19.6 mph N/A   Overcast
7:55 AM 23.9 °F 13.5 °F 21.2 °F 89% 29.96 in 10.0 mi NNW 10.4 mph 17.3 mph N/A   Overcast
8:15 AM 24.4 °F 15.6 °F 21.6 °F 89% 29.97 in 10.0 mi NNW 8.1 mph - N/A   Overcast
8:35 AM 24.4 °F 18.6 °F 21.6 °F 89% 29.98 in 10.0 mi NNW 4.6 mph - N/A   Overcast
8:55 AM 24.6 °F 14.4 °F 21.2 °F 87% 29.98 in 10.0 mi NNW 10.4 mph - N/A   Overcast
9:15 AM 24.8 °F 17.9 °F 21.2 °F 86% 29.99 in 10.0 mi NNW 5.8 mph - N/A   Overcast
9:35 AM 24.6 °F 15.8 °F 20.8 °F 86% 30.00 in 10.0 mi North 8.1 mph - N/A   Overcast
9:55 AM 24.8 °F 15.3 °F 20.7 °F 84% 30.01 in 10.0 mi North 9.2 mph - N/A   Overcast
10:15 AM 24.8 °F 14.6 °F 20.3 °F 83% 30.02 in 10.0 mi North 10.4 mph - N/A   Overcast
10:35 AM 24.8 °F 17.9 °F 20.1 °F 82% 30.03 in 10.0 mi North 5.8 mph - N/A   Overcast
10:55 AM 24.8 °F 16.9 °F 20.1 °F 82% 30.03 in 10.0 mi NNW 6.9 mph - N/A   Overcast
11:15 AM 24.6 °F 17.7 °F 19.6 °F 81% 30.03 in 10.0 mi NW 5.8 mph - N/A   Overcast
11:35 AM 25.0 °F 17.1 °F 19.6 °F 80% 30.03 in 10.0 mi NW 6.9 mph - N/A   Overcast
11:55 AM 25.3 °F 16.0 °F 19.9 °F 80% 30.02 in 10.0 mi NW 9.2 mph - N/A   Overcast
12:15 PM 25.9 °F 16.6 °F 19.9 °F 78% 30.01 in 10.0 mi NW 9.2 mph - N/A   Overcast
12:35 PM 26.1 °F 18.4 °F 19.8 °F 77% 30.01 in 10.0 mi NNW 6.9 mph - N/A   Overcast
12:55 PM 26.6 °F 21.2 °F 19.9 °F 76% 30.00 in 10.0 mi NNW 4.6 mph - N/A   Overcast
1:15 PM 26.6 °F 20.0 °F 20.1 °F 77% 30.00 in 10.0 mi NW 5.8 mph - N/A   Overcast
1:35 PM 27.1 °F 21.8 °F 20.1 °F 75% 30.00 in 10.0 mi North 4.6 mph - N/A   Overcast
1:55 PM 27.7 °F 23.8 °F 20.5 °F 74% 29.99 in 10.0 mi NNE 3.5 mph - N/A   Overcast
2:15 PM 27.5 °F 22.2 °F 20.8 °F 76% 30.00 in 10.0 mi NNW 4.6 mph - N/A   Overcast
2:35 PM 27.7 °F 22.4 °F 20.7 °F 75% 29.99 in 10.0 mi North 4.6 mph - 0.03 in   Overcast
2:55 PM 28.0 °F - 20.7 °F 74% 29.99 in 10.0 mi Calm Calm - 0.03 in   Overcast
3:15 PM 27.9 °F - 20.5 °F 74% 29.98 in 10.0 mi Calm Calm - N/A   Overcast
3:35 PM 28.4 °F - 20.7 °F 73% 29.98 in 10.0 mi Calm Calm - N/A   Overcast
3:55 PM 28.0 °F - 20.5 °F 73% 29.98 in 10.0 mi Calm Calm - N/A   Overcast
4:15 PM 28.2 °F - 20.7 °F 73% 29.98 in 10.0 mi Calm Calm - N/A   Overcast
4:35 PM 28.2 °F - 20.3 °F 72% 29.96 in 10.0 mi Calm Calm - N/A   Overcast
4:55 PM 28.2 °F - 20.7 °F 73% 29.95 in 10.0 mi Calm Calm - N/A   Mostly Cloudy
5:15 PM 27.9 °F - 20.5 °F 74% 29.95 in 10.0 mi Calm Calm - N/A   Scattered Clouds
5:35 PM 27.5 °F - 20.8 °F 76% 29.95 in 10.0 mi Calm Calm - N/A   Overcast
5:55 PM 27.3 °F 23.4 °F 20.7 °F 76% 29.94 in 10.0 mi South 3.5 mph - N/A   Scattered Clouds
6:15 PM 27.3 °F - 20.7 °F 76% 29.95 in 10.0 mi Calm Calm - N/A   Scattered Clouds
6:35 PM 25.7 °F - 20.7 °F 81% 29.94 in 10.0 mi Calm Calm - N/A   Scattered Clouds
6:55 PM 26.4 °F 22.4 °F 20.8 °F 79% 29.94 in 10.0 mi SSW 3.5 mph - N/A   Clear
7:15 PM 26.4 °F 20.9 °F 21.2 °F 81% 29.96 in 10.0 mi SW 4.6 mph - N/A   Mostly Cloudy
7:35 PM 26.1 °F 19.4 °F 21.2 °F 82% 29.96 in 10.0 mi WSW 5.8 mph - N/A   Mostly Cloudy
7:55 PM 26.1 °F 20.5 °F 21.4 °F 82% 29.96 in 10.0 mi WSW 4.6 mph - N/A   Mostly Cloudy
8:15 PM 26.6 °F 19.1 °F 21.7 °F 82% 29.96 in 10.0 mi SW 6.9 mph - N/A   Overcast
8:35 PM 26.4 °F 18.9 °F 21.9 °F 83% 29.94 in 10.0 mi South 6.9 mph - N/A   Overcast
8:55 PM 26.2 °F 19.6 °F 22.1 °F 84% 29.93 in 10.0 mi SSW 5.8 mph - N/A   Overcast
9:15 PM 26.1 °F 18.4 °F 22.1 °F 85% 29.92 in 7.0 mi SSW 6.9 mph - N/A   Overcast
9:35 PM 26.1 °F 18.4 °F 22.6 °F 87% 29.91 in 7.0 mi South 6.9 mph - N/A   Overcast
9:55 PM 25.7 °F 19.0 °F 22.8 °F 89% 29.91 in 7.0 mi South 5.8 mph - N/A   Overcast
10:15 PM 26.1 °F 20.5 °F 23.0 °F 88% 29.91 in 7.0 mi South 4.6 mph - N/A   Overcast
10:35 PM 26.4 °F 19.8 °F 23.5 °F 89% 29.90 in 7.0 mi South 5.8 mph - N/A   Overcast
10:55 PM 26.6 °F 22.6 °F 23.9 °F 90% 29.89 in 7.0 mi South 3.5 mph - N/A   Overcast
11:15 PM 27.0 °F 18.7 °F 23.9 °F 88% 29.89 in 10.0 mi South 8.1 mph - N/A   Overcast
11:35 PM 27.1 °F 21.8 °F 24.4 °F 90% 29.88 in 7.0 mi South 4.6 mph - N/A   Overcast
11:55 PM 27.1 °F 21.8 °F 24.4 °F 90% 29.89 in 7.0 mi South 4.6 mph - N/A   Overcast